Probability
0 0 0 0 0 1 0 1 2 3 2 1 0 1 1 1 1 1 1 0 0 0 1 2 2 1 2 2 1 0 0 0 0 0 0 0 0 0 1 1 1 0 0
0 0 0 0 1 1 1 1 2 2 1 0 0 0 0 0 0 1 1 0 0 0 1 1 1 0 1 1 1 0 0 0 0 0 0 0 0 0 1 1 0 0 1
0 0 0 1 2 2 2 2 2 1 0 0 0 0 0 0 1 1 1 0 0 0 0 0 0 0 0 0 0 0 0 0 0 0 0 0 0 0 1 1 0 0 1
0 0 0 0 1 2 2 3 2 1 1 1 1 0 0 1 2 2 1 1 1 1 0 0 0 0 0 1 1 0 0 0 0 0 0 0 0 0 1 1 0 0 1
0 0 1 1 1 2 3 3 3 2 1 2 2 1 0 2 3 3 3 2 2 2 1 0 0 0 1 1 1 0 0 0 1 1 0 0 0 0 1 1 0 0 0
0 0 2 4 4 3 3 2 3 2 1 1 2 1 0 2 3 3 3 3 2 2 1 0 0 1 1 1 1 0 0 0 1 1 0 0 0 0 1 1 0 0 0
0 0 2 4 4 2 1 1 1 2 1 1 1 1 1 3 4 4 3 2 1 1 0 1 1 1 0 0 0 0 0 0 0 0 0 0 0 0 1 1 0 0 0
0 0 0 1 1 1 0 0 0 1 1 0 1 1 2 3 4 4 4 3 2 1 1 2 1 0 0 0 0 0 0 0 0 0 0 0 0 0 0 0 1 1 0
0 0 0 0 0 0 0 0 0 0 0 0 1 2 3 4 5 5 5 4 2 1 2 3 2 1 1 0 0 0 0 0 0 0 0 0 0 0 0 0 1 2 1
0 0 0 0 0 0 0 0 0 0 0 0 1 2 3 5 5 4 3 3 1 1 2 3 3 3 2 1 0 0 0 0 0 0 0 0 0 0 0 0 1 2 2
0 0 0 0 0 0 0 0 0 0 0 0 0 1 2 3 2 2 1 2 2 2 3 4 4 4 3 2 1 0 0 0 0 0 0 0 0 0 0 0 0 1 1
1 0 0 0 0 0 0 0 0 0 0 0 0 0 1 1 0 0 1 2 3 4 4 4 4 3 3 3 2 1 0 0 0 0 0 1 1 1 1 1 0 0 1
2 1 0 0 0 0 0 0 0 0 0 0 0 0 0 0 0 0 1 2 3 3 4 4 3 3 3 3 2 1 1 1 1 1 1 2 3 4 5 3 2 1 2
2 2 1 0 0 0 0 0 0 0 0 0 0 0 0 0 0 0 0 1 1 2 2 3 3 3 3 3 2 1 1 1 2 2 3 3 4 6 8 7 4 2 3
2 3 2 1 0 0 0 0 0 0 0 0 0 0 0 0 0 0 0 0 0 1 1 1 2 2 3 3 3 1 1 2 3 3 3 3 3 5 7 7 5 3 2
2 2 2 1 1 1 1 1 0 0 0 0 0 0 0 0 0 1 1 1 0 0 0 0 1 1 1 2 3 3 3 3 3 3 3 3 3 4 5 5 5 3 2
2 1 1 1 1 2 2 2 1 0 0 0 0 0 0 0 1 2 2 2 1 1 0 0 0 0 0 1 2 2 2 3 3 3 3 3 2 3 4 6 6 5 5
2 1 1 1 1 3 3 3 1 0 0 0 0 0 0 1 2 3 3 3 3 2 1 0 0 1 1 0 1 1 1 1 2 4 3 2 1 1 3 6 8 8 8
3 3 2 2 3 3 4 4 1 0 1 1 1 0 1 3 4 4 4 4 4 4 2 1 1 2 2 1 0 0 0 0 2 4 4 3 1 0 1 4 7 8 7
3 3 3 4 4 5 6 5 2 1 2 2 2 1 2 4 5 6 6 6 6 5 4 3 3 3 3 2 0 0 0 0 2 3 4 3 2 1 0 1 4 5 5
4 3 4 6 7 8 7 6 4 2 2 2 3 3 3 4 6 6 7 7 7 6 4 3 3 3 3 3 2 1 0 0 1 2 2 2 2 1 0 0 1 3 4
6 6 8 11 12 11 10 9 7 4 2 3 4 4 3 3 5 6 7 7 8 7 5 4 3 3 3 3 3 2 1 0 1 2 2 1 1 1 0 0 1 2 3
7 10 13 15 15 13 12 12 10 7 4 4 5 4 2 2 3 5 5 5 7 7 5 4 4 3 2 3 3 3 2 1 1 2 2 1 0 0 0 0 0 1 2
9 12 15 18 18 16 13 12 11 8 5 4 5 4 3 2 2 4 4 3 3 4 4 4 5 4 4 3 3 3 3 3 3 3 2 1 0 0 0 0 0 1 2
10 12 16 20 21 17 12 11 10 8 5 4 4 4 3 2 1 2 2 1 1 2 2 3 4 5 4 4 3 3 3 3 3 3 2 1 0 0 0 0 0 1 2
10 13 16 19 20 16 12 10 9 7 4 4 4 4 3 2 1 1 1 1 0 1 1 2 3 3 3 2 2 3 3 3 3 3 2 1 0 0 0 0 0 0 1
Wind_Speed
2 4 11 12 13 14 14 15 14 14 14 14 15 15 15 15 14 14 13 13 12 12 11 11 10 10 10 10 11 10 10 10 10 10 10 11 11 10 11 11 11 8 12
6 6 12 13 14 14 15 15 15 14 14 14 14 14 14 14 13 13 12 12 11 11 11 10 9 9 9 9 9 9 9 8 8 9 10 9 10 10 10 10 10 7 12
8 7 11 13 14 15 15 14 14 14 14 14 14 13 13 13 13 12 12 11 11 10 10 9 8 8 8 8 8 8 7 7 7 7 7 4 5 9 10 10 11 12 12
9 7 10 14 14 15 15 14 14 14 14 13 13 12 12 12 12 12 11 10 10 10 10 9 8 7 7 7 7 6 6 6 6 5 3 3 3 8 9 10 10 11 11
8 7 10 15 15 15 15 14 14 13 13 12 12 12 12 11 11 11 10 10 9 9 9 8 7 7 6 6 6 5 4 4 4 3 2 2 2 7 9 9 10 11 11
8 6 9 14 15 15 14 14 13 13 13 12 12 11 11 11 10 9 9 9 9 8 8 7 6 6 5 5 4 4 3 3 3 2 2 3 3 7 9 10 10 11 11
8 6 8 14 15 15 14 13 13 13 12 12 11 11 10 10 9 9 9 8 8 8 7 6 6 5 5 4 3 3 2 1 2 3 2 3 4 8 9 10 11 11 11
9 7 8 14 15 14 13 13 12 12 12 11 10 10 9 9 9 8 8 8 7 7 6 6 5 5 4 3 2 2 1 1 3 4 3 3 5 7 9 10 11 11 11
9 7 5 6 9 12 12 12 11 11 11 10 9 9 9 8 8 7 7 7 7 7 6 6 5 5 4 3 2 2 2 2 2 2 4 3 6 8 9 10 11 11 11
7 7 6 5 5 5 6 10 10 10 10 9 8 8 8 7 6 6 6 7 7 7 7 6 6 5 5 4 3 2 2 2 2 2 2 4 8 10 10 10 11 11 11
7 5 5 5 5 5 5 8 8 9 9 8 6 7 5 2 2 3 5 7 7 7 7 7 6 5 5 4 3 3 2 1 2 2 2 6 9 11 11 11 11 11 11
8 6 5 6 6 5 5 4 2 3 3 3 2 3 2 2 2 3 5 7 8 7 7 6 6 4 3 1 2 3 1 2 2 2 3 7 9 10 11 11 11 11 11
10 9 7 6 6 5 3 3 2 1 2 2 3 3 2 1 1 1 1 2 3 4 2 3 3 2 2 1 1 1 2 1 2 2 3 7 9 10 11 11 10 10 10
8 8 7 7 6 5 4 3 3 2 2 2 3 3 3 2 1 1 1 1 1 1 2 2 2 2 2 2 2 2 2 1 2 1 3 7 8 9 10 10 10 9 9
8 8 8 7 6 5 4 3 3 3 3 3 2 3 4 2 2 2 1 1 2 2 2 2 2 2 2 1 2 2 2 2 3 3 2 7 8 9 10 10 9 9 9
9 8 7 7 6 5 4 3 2 3 3 2 2 3 3 2 2 2 2 2 2 2 2 3 3 2 2 1 1 2 2 3 3 3 3 5 8 9 9 9 9 9 9
9 8 8 8 6 5 4 3 2 2 3 2 2 3 3 3 3 2 2 2 2 2 2 1 1 1 1 1 1 2 2 3 3 3 3 3 3 6 8 8 8 8 9
9 9 8 8 7 5 4 3 2 2 2 2 2 2 3 3 3 2 2 2 2 1 1 1 1 1 1 1 1 1 1 1 3 3 3 3 2 3 5 8 8 7 8
10 9 7 6 7 5 4 2 2 2 2 2 2 2 2 3 3 2 2 1 1 1 1 2 1 1 1 1 1 1 1 1 2 3 3 4 4 3 3 5 7 7 7
9 9 7 6 6 5 3 2 1 1 1 1 2 2 3 2 2 2 1 1 1 1 1 1 1 1 1 1 1 0 1 1 1 2 3 3 3 4 4 3 3 4 6
8 8 7 7 5 4 3 2 2 1 1 1 1 2 2 2 2 2 1 2 2 2 2 2 1 1 0 1 1 1 2 1 1 2 2 2 3 3 3 4 3 2 3
10 9 8 7 6 5 3 3 2 2 2 2 1 1 2 1 1 2 2 2 2 2 1 1 1 1 0 1 2 1 2 3 2 1 1 2 3 2 3 4 4 3 3
10 10 9 8 7 6 4 2 2 1 1 1 0 1 1 1 2 2 2 2 2 2 2 2 2 2 1 0 1 3 2 2 2 2 2 1 2 2 2 3 5 4 4
11 9 8 7 6 5 5 4 4 3 2 2 2 1 1 1 1 1 2 2 1 2 2 2 2 2 2 1 1 1 2 3 2 1 3 2 1 2 2 3 4 4 4
10 9 7 7 6 5 5 5 4 3 2 1 1 1 1 1 1 1 1 1 1 1 2 2 1 1 2 2 1 1 0 0 1 2 2 2 2 2 1 2 2 3 3
8 8 8 8 6 5 5 5 4 4 3 2 2 2 1 1 1 1 1 1 1 1 2 2 2 2 2 2 1 1 2 1 1 2 2 2 2 3 1 1 2 2 3
Wind_Direction
147 151 135 129 123 122 121 122 122 122 121 118 117 117 118 119 121 121 122 122 121 121 120 117 116 114 112 113 114 117 120 122 124 123 125 128 131 132 131 129 124 120 121
144 143 135 127 125 123 123 122 121 121 122 121 121 121 121 121 122 123 123 123 123 124 125 124 121 117 116 117 121 125 128 128 127 126 126 131 137 137 134 133 131 132 128
131 132 131 128 125 124 125 124 122 123 123 122 123 123 124 123 123 124 124 124 127 128 128 130 128 125 123 123 125 128 131 130 129 126 122 117 130 135 137 138 137 135 134
130 129 129 129 128 128 128 127 125 126 126 126 126 126 128 127 126 126 128 129 131 134 135 136 135 133 132 130 129 129 131 131 135 131 126 129 135 139 143 143 141 140 140
123 126 135 133 132 131 129 129 129 129 128 128 128 127 130 130 129 130 131 133 135 135 137 139 139 138 137 135 132 130 132 134 136 117 124 134 138 146 150 150 148 147 147
124 127 136 137 137 133 131 132 133 132 133 133 130 128 131 133 133 136 136 138 139 139 139 140 139 137 134 131 132 124 127 135 141 127 130 149 159 160 158 157 155 154 153
127 127 127 133 136 135 134 135 135 135 135 135 134 133 135 137 138 139 142 144 145 147 147 147 148 148 148 146 140 132 128 123 149 149 150 163 175 171 167 164 162 162 160
134 130 128 134 136 137 137 137 137 138 139 139 141 142 144 145 147 150 153 155 157 159 161 163 167 168 168 171 172 170 159 146 141 150 163 181 183 176 170 167 166 167 166
134 133 128 131 136 141 142 143 144 144 145 147 150 152 155 158 159 162 165 166 168 171 175 179 183 190 196 207 215 216 208 167 163 165 176 185 180 175 170 170 171 172 172
137 140 138 133 133 138 142 148 152 154 157 161 162 163 165 168 170 174 175 182 184 187 190 192 197 208 220 225 229 236 223 183 183 185 186 190 187 181 176 174 176 178 178
145 150 150 150 151 152 154 158 159 164 169 171 170 169 169 175 178 186 193 196 196 198 201 204 210 220 231 235 247 255 243 176 176 187 190 192 191 186 182 181 182 184 185
157 164 162 161 164 168 170 154 166 171 171 174 179 181 173 178 200 202 204 206 206 206 208 213 222 230 238 247 265 262 213 190 189 200 198 198 196 190 190 190 189 190 191
163 164 168 171 170 171 163 156 171 169 173 188 198 196 187 181 201 214 199 220 217 210 215 230 237 235 218 211 223 224 205 190 199 206 200 200 198 195 195 194 192 192 193
158 161 163 167 166 167 162 164 169 173 179 196 200 190 172 174 189 190 195 204 198 198 203 216 225 232 238 233 227 222 203 185 189 192 199 197 199 197 194 192 192 193 195
159 162 162 159 161 162 157 173 167 177 181 192 188 180 167 171 182 189 200 209 210 203 204 212 220 231 246 255 229 199 183 181 187 194 195 194 197 202 199 196 195 197 200
162 163 163 156 160 163 166 171 170 172 178 183 186 186 173 167 171 181 198 208 214 212 213 213 214 216 223 217 212 195 197 187 186 193 193 194 201 204 201 199 201 203 205
162 159 162 165 165 168 174 182 175 170 166 177 189 187 178 172 168 178 196 203 212 213 209 206 219 197 205 208 211 214 205 192 186 191 188 194 200 203 202 203 204 207 210
157 158 167 167 166 170 175 185 182 165 158 178 178 173 177 170 164 171 191 210 211 191 178 179 176 168 222 207 212 225 213 188 191 194 187 189 192 200 207 205 205 208 211
159 160 166 161 167 173 172 173 169 158 160 182 172 165 174 171 167 172 193 215 196 166 177 189 161 170 193 229 224 204 201 195 198 195 195 201 198 199 200 205 206 209 214
160 159 161 160 168 165 152 133 104 101 144 164 169 171 172 182 176 174 190 206 177 160 173 169 174 185 191 213 233 176 224 213 211 201 206 208 202 202 199 200 203 215 214
159 160 162 160 168 158 146 145 143 170 196 197 189 173 174 184 184 183 200 189 183 179 194 174 165 182 236 104 70 8 346 308 253 232 213 200 211 214 198 197 192 197 209
167 167 166 167 170 169 168 168 170 171 194 199 197 165 168 176 200 198 195 196 184 175 172 171 148 137 223 126 125 101 0 343 325 287 236 204 211 207 201 201 191 195 200
173 174 173 174 174 176 169 147 127 89 63 45 180 192 202 195 199 193 184 175 176 172 181 191 166 152 165 257 153 146 151 228 297 314 280 243 219 204 212 197 192 202 200
181 176 169 172 174 174 161 154 161 167 185 209 201 199 216 201 192 163 143 150 165 164 163 194 174 169 159 189 255 182 171 170 169 293 318 305 253 221 218 203 196 199 202
176 173 167 163 168 171 167 167 170 177 192 193 179 180 202 215 192 165 155 150 149 161 175 190 177 177 171 172 187 197 187 143 159 166 260 301 315 281 232 214 200 199 205
167 167 165 163 170 176 176 176 168 170 174 172 186 192 213 235 243 201 172 168 172 168 192 194 184 173 182 175 174 166 165 165 190 176 213 246 267 282 276 239 209 210 211